sat.trackr.live / text

‹ back to catalog

STARLINK-32953

NORAD 63561 · 2025-075P

PAYLOAD ACTIVE UNKNOWN

§ Identity

Operator
Country
US
Launch date
2025-04-13
Launch site
AFETR
Launch vehicle
Mass (kg)
RCS (m²)

Purposes: comms

External: N2YO · Heavens-Above · Gunter

§ Orbital elements

Epoch: 2026-05-25T04:20:00.330432Z

Period
94.27 min
Inclination
42.9975°
Eccentricity
0.0001338
Mean motion
15.27561246 rev/d
Perigee alt
482.2 km
Apogee alt
484.0 km
Semi-major
6,861.2 km
B*
2.6086e-4
RAAN
198.8263°
Arg perigee
266.5995°
Mean anomaly
93.4704°
Rev number
6,362

§ Raw data

STARLINK-329531 63561U 25075P   26145.18055938  .00006919  00000+0  26086-3 0  99962 63561  42.9975 198.8263 0001338 266.5995  93.4704 15.27561246 63626

JSON: /api/v1/satellites/63561 · /tle

For live sub-satellite position, see the globe view (requires WebGL).

§ Visibility from observer

Set your observer location to see the next 7 days of passes ≥ 10°. The values pass through the URL so the page stays shareable.

No JS? Fill the form by hand. The geolocation button needs JavaScript.